Find Starlink 37303

NORAD ID: 68710 Int'l Des: 2026-081 Owner: SPXS Country: US Constellation: starlink operational
LEOCIRCULAR

Live Position

Loading 3D Globe...

About Starlink 37303

Description loading...

Upcoming Passes

Passes for default location (London). Set your location on the main map for personalized predictions.

Altitude History

Loading altitude history...

Two-Line Element Set

1 68710C 26081L 26105.38798611 .00611150 00000+0 78928-3 0 1055
2 68710 53.1627 237.9752 0007373 302.6929 40.5780 16.06051268 14
Epoch: Apr 15, 2026 • Age: 22 hours

Current Status

Altitude 265.6 km
Velocity 7.75 km/s
Sub-Earth Point -33.42°S, 93.25°W
Launch Date Apr 14, 2026
Age 1 days
Type internet

Technical Details

Classification Payload
Mass 575.00 kg
Dry Mass 530.00 kg
Total Mass 575.00 kg
Length 0.30 m
Diameter 4.10 m
Span 29.00 m
Shape Box + pan
Manufacturer SPXS
Bus Type Starlink V2MO
Phase Status In Orbit
Owner/State SPXS/US

Most Searched